2022/12/25 00:00:00,47.4,-0.1
2022/12/25 00:10:00,47.2, 0.1
2022/12/25 00:20:00,47.0, 0.1
2022/12/25 00:30:00,46.9, 0.0
2022/12/25 00:40:00,46.9,-0.2
2022/12/25 00:50:00,46.8,-0.3
2022/12/25 01:00:00,46.5,-0.3
2022/12/25 01:10:00,46.4,-0.4
2022/12/25 01:20:00,46.2,-0.2
2022/12/25 01:30:00,46.0,-0.4
2022/12/25 01:40:00,45.9,-0.5
2022/12/25 01:50:00,45.8,-0.4
2022/12/25 02:00:00,45.8,-0.6
2022/12/25 02:10:00,45.8,-0.4
2022/12/25 02:20:00,45.7,-0.4
2022/12/25 02:30:00,45.5,-0.6
2022/12/25 02:40:00,45.3,-0.5
2022/12/25 02:50:00,45.2,-0.6
2022/12/25 03:00:00,45.2,-0.4
2022/12/25 03:10:00,45.1,-0.4
2022/12/25 03:20:00,45.0,-0.4
2022/12/25 03:30:00,44.9,-0.5
2022/12/25 03:40:00,44.8,-0.4
2022/12/25 03:50:00,44.8,-0.4
2022/12/25 04:00:00,44.7,-0.7
2022/12/25 04:10:00,44.7,-0.6
2022/12/25 04:20:00,44.7,-0.7
2022/12/25 04:30:00,44.5,-0.4
2022/12/25 04:40:00,44.6,-0.5
2022/12/25 04:50:00,44.3,-0.4
2022/12/25 05:00:00,44.2,-0.3
2022/12/25 05:10:00,44.0, 0.3
2022/12/25 05:20:00,44.0,-0.8
2022/12/25 05:30:00,43.8,-0.5
2022/12/25 05:40:00,43.7,-0.5
2022/12/25 05:50:00,43.6,-0.4
2022/12/25 06:00:00,43.3,-0.6
2022/12/25 06:10:00,43.2,-0.5
2022/12/25 06:20:00,43.2,-0.1
2022/12/25 06:30:00,43.2,-0.5
2022/12/25 06:40:00,43.0,-0.4
2022/12/25 06:50:00,43.0,-0.5
2022/12/25 07:00:00,43.0,-0.9
2022/12/25 07:10:00,43.0,-0.2
2022/12/25 07:20:00,42.9,-0.7
2022/12/25 07:30:00,42.7,-0.4
2022/12/25 07:40:00,42.6,-0.3
2022/12/25 07:50:00,42.5,-0.5
2022/12/25 08:00:00,42.4,-0.2
2022/12/25 08:10:00,42.3, 0.1
2022/12/25 08:20:00,42.1, 0.4
2022/12/25 08:30:00,42.1, 0.9
2022/12/25 08:40:00,41.9, 1.0
2022/12/25 08:50:00,41.9, 1.3
2022/12/25 09:00:00,41.7, 1.2
2022/12/25 09:10:00,41.5, 1.3
2022/12/25 09:20:00,41.4, 1.9
2022/12/25 09:30:00,41.4, 2.7
2022/12/25 09:40:00,41.3, 2.7
2022/12/25 09:50:00,41.3, 3.6
2022/12/25 10:00:00,41.0, 5.1
2022/12/25 10:10:00,40.9, 6.0
2022/12/25 10:20:00,40.7, 7.1
2022/12/25 10:30:00,40.7, 6.8
2022/12/25 10:40:00,40.7, 5.9
2022/12/25 10:50:00,40.5, 7.1
2022/12/25 11:00:00,40.1, 8.0
2022/12/25 11:10:00,40.0, 6.7
2022/12/25 11:20:00,39.7, 6.7
2022/12/25 11:30:00,39.6, 7.6
2022/12/25 11:40:00,39.5, 7.4
2022/12/25 11:50:00,39.2, 7.8
2022/12/25 12:00:00,39.1, 9.1
2022/12/25 12:10:00,38.9, 8.2
2022/12/25 12:20:00,38.8, 5.8
2022/12/25 12:30:00,38.6, 7.7
2022/12/25 12:40:00,38.3, 9.9
2022/12/25 12:50:00,38.2, 8.5
2022/12/25 13:00:00,38.2, 5.9
2022/12/25 13:10:00,38.0, 5.5
2022/12/25 13:20:00,37.8, 7.4
2022/12/25 13:30:00,37.7, 5.4
2022/12/25 13:40:00,37.5, 3.9
2022/12/25 13:50:00,37.3, 3.8
2022/12/25 14:00:00,37.1, 4.8
2022/12/25 14:10:00,37.0, 4.0
2022/12/25 14:20:00,37.0, 3.6
2022/12/25 14:30:00,37.0, 3.1
2022/12/25 14:40:00,36.8, 2.2
2022/12/25 14:50:00,36.6, 2.2
2022/12/25 15:00:00,36.4, 1.4
2022/12/25 15:10:00,36.3, 1.1
2022/12/25 15:20:00,35.9, 0.7
2022/12/25 15:30:00,35.6, 0.8
2022/12/25 15:40:00,35.3, 2.0
2022/12/25 15:50:00,35.2, 2.0
2022/12/25 16:00:00,35.1, 1.9
2022/12/25 16:10:00,34.4, 1.4
2022/12/25 16:20:00,34.5, 1.1
2022/12/25 16:30:00,34.4, 0.9
2022/12/25 16:40:00,34.3, 0.7
2022/12/25 16:50:00,34.4, 0.7
2022/12/25 17:00:00,34.3, 0.4
2022/12/25 17:10:00,33.9, 0.7
2022/12/25 17:20:00,33.4, 0.2
2022/12/25 17:30:00,33.2, 0.4
2022/12/25 17:40:00,33.1, 0.2
2022/12/25 17:50:00,32.8, 0.4
2022/12/25 18:00:00,32.6, 0.1
2022/12/25 18:10:00,32.5,-0.1
2022/12/25 18:20:00,32.4, 0.1
2022/12/25 18:30:00,32.3, 0.0
2022/12/25 18:40:00,32.1, 0.0
2022/12/25 18:50:00,32.3, 0.0
2022/12/25 19:00:00,32.8,-0.2
2022/12/25 19:10:00,33.1,-0.3
2022/12/25 19:20:00,33.2,-0.1
2022/12/25 19:30:00,33.0,-0.3
2022/12/25 19:40:00,32.8,-0.2
2022/12/25 19:50:00,32.7, 0.0
2022/12/25 20:00:00,32.7,-0.3
2022/12/25 20:10:00,32.5,-0.5
2022/12/25 20:20:00,32.4,-0.4
2022/12/25 20:30:00,32.4,-0.4
2022/12/25 20:40:00,32.5,-0.4
2022/12/25 20:50:00,32.6,-0.4
2022/12/25 21:00:00,32.5,-0.4
2022/12/25 21:10:00,32.4,-0.3
2022/12/25 21:20:00,32.4,-0.4
2022/12/25 21:30:00,32.3,-0.4
2022/12/25 21:40:00,32.3,-0.5
2022/12/25 21:50:00,32.3,-0.6
2022/12/25 22:00:00,32.3,-0.1
2022/12/25 22:10:00,32.2,-0.5
2022/12/25 22:20:00,32.2,-0.4
2022/12/25 22:30:00,32.1,-0.4
2022/12/25 22:40:00,32.1,-0.6
2022/12/25 22:50:00,32.0,-0.4
2022/12/25 23:00:00,32.0,-0.7
2022/12/25 23:10:00,31.9,-0.5
2022/12/25 23:20:00,31.7,-0.5
2022/12/25 23:30:00,31.6,-0.5
2022/12/25 23:40:00,31.5,-0.7
2022/12/25 23:50:00,31.4,-0.4
